owner,sensor,date,latitude,longitude,vertical_datum,wind_speed,wind_to_direction,wind_speed_of_gust,qcFlag 
DISL,ioos:station:DISL:BSCA:1,2017-02-01T00:00:00Z,30.3288,-87.8293,0.0,4.52,211.5,-999.0,'1111122,1111122,1111122' 
DISL,ioos:station:DISL:BSCA:1,2017-02-01T00:30:00Z,30.3288,-87.8293,0.0,4.44,216.9,-999.0,'1111122,1111122,1111122' 
DISL,ioos:station:DISL:BSCA:1,2017-02-01T01:00:00Z,30.3288,-87.8293,0.0,4.66,218.1,-999.0,'1111122,1111122,1111122' 
DISL,ioos:station:DISL:BSCA:1,2017-02-01T01:30:00Z,30.3288,-87.8293,0.0,5.11,216.6,-999.0,'1111122,1111122,1111122' 
DISL,ioos:station:DISL:BSCA:1,2017-02-01T02:00:00Z,30.3288,-87.8293,0.0,4.11,220.5,-999.0,'1111122,1111122,1111122' 
DISL,ioos:station:DISL:BSCA:1,2017-02-01T02:30:00Z,30.3288,-87.8293,0.0,4.0,220.9,-999.0,'1111122,1111122,1111122' 
DISL,ioos:station:DISL:BSCA:1,2017-02-01T03:00:00Z,30.3288,-87.8293,0.0,4.52,218.8,-999.0,'1111122,1111122,1111122' 
DISL,ioos:station:DISL:BSCA:1,2017-02-01T03:30:00Z,30.3288,-87.8293,0.0,4.32,223.9,-999.0,'1111122,1111122,1111122' 
DISL,ioos:station:DISL:BSCA:1,2017-02-01T04:00:00Z,30.3288,-87.8293,0.0,4.48,226.3,-999.0,'1111122,1111122,1111122' 
DISL,ioos:station:DISL:BSCA:1,2017-02-01T04:30:00Z,30.3288,-87.8293,0.0,4.16,226.4,-999.0,'1111122,1111122,1111122' 
DISL,ioos:station:DISL:BSCA:1,2017-02-01T05:00:00Z,30.3288,-87.8293,0.0,4.22,228.0,-999.0,'1111122,1111122,1111122' 
DISL,ioos:station:DISL:BSCA:1,2017-02-01T05:30:00Z,30.3288,-87.8293,0.0,4.35,227.4,-999.0,'1111122,1111122,1111122' 
DISL,ioos:station:DISL:BSCA:1,2017-02-01T06:00:00Z,30.3288,-87.8293,0.0,3.49,220.9,-999.0,'1111122,1111122,1111122' 
DISL,ioos:station:DISL:BSCA:1,2017-02-01T06:30:00Z,30.3288,-87.8293,0.0,3.84,215.3,-999.0,'1111122,1111122,1111122' 
DISL,ioos:station:DISL:BSCA:1,2017-02-01T07:00:00Z,30.3288,-87.8293,0.0,3.11,220.4,-999.0,'1111122,1111122,1111122' 
DISL,ioos:station:DISL:BSCA:1,2017-02-01T07:30:00Z,30.3288,-87.8293,0.0,2.64,221.0,-999.0,'1111122,1111122,1111122' 
DISL,ioos:station:DISL:BSCA:1,2017-02-01T08:00:00Z,30.3288,-87.8293,0.0,2.86,202.8,-999.0,'1111122,1111122,1111122' 
DISL,ioos:station:DISL:BSCA:1,2017-02-01T08:30:00Z,30.3288,-87.8293,0.0,2.89,198.2,-999.0,'1111122,1111122,1111122' 
DISL,ioos:station:DISL:BSCA:1,2017-02-01T09:00:00Z,30.3288,-87.8293,0.0,2.99,190.5,-999.0,'1111122,1111122,1111122' 
DISL,ioos:station:DISL:BSCA:1,2017-02-01T09:30:00Z,30.3288,-87.8293,0.0,2.33,193.6,-999.0,'1111122,1111122,1111122' 
DISL,ioos:station:DISL:BSCA:1,2017-02-01T10:00:00Z,30.3288,-87.8293,0.0,2.01,191.7,-999.0,'1111122,1111122,1111122' 
DISL,ioos:station:DISL:BSCA:1,2017-02-01T10:30:00Z,30.3288,-87.8293,0.0,1.37,107.6,-999.0,'1111122,1111122,1111122' 
DISL,ioos:station:DISL:BSCA:1,2017-02-01T11:00:00Z,30.3288,-87.8293,0.0,1.13,171.9,-999.0,'1111122,1111122,1111122' 
DISL,ioos:station:DISL:BSCA:1,2017-02-01T11:30:00Z,30.3288,-87.8293,0.0,1.27,78.8,-999.0,'1111122,1111122,1111122' 
DISL,ioos:station:DISL:BSCA:1,2017-02-01T12:00:00Z,30.3288,-87.8293,0.0,1.37,73.19,-999.0,'1111122,1111122,1111122' 
DISL,ioos:station:DISL:BSCA:1,2017-02-01T12:30:00Z,30.3288,-87.8293,0.0,1.42,66.8,-999.0,'1111122,1111122,1111122' 
DISL,ioos:station:DISL:BSCA:1,2017-02-01T13:00:00Z,30.3288,-87.8293,0.0,1.07,69.24,-999.0,'1111122,1111122,1111122' 
DISL,ioos:station:DISL:BSCA:1,2017-02-01T13:30:00Z,30.3288,-87.8293,0.0,1.26,91.1,-999.0,'1111122,1111122,1111122' 
DISL,ioos:station:DISL:BSCA:1,2017-02-01T14:00:00Z,30.3288,-87.8293,0.0,1.31,95.5,-999.0,'1111122,1111122,1111122' 
DISL,ioos:station:DISL:BSCA:1,2017-02-01T14:30:00Z,30.3288,-87.8293,0.0,1.66,116.0,-999.0,'1111122,1111122,1111122' 
DISL,ioos:station:DISL:BSCA:1,2017-02-01T15:00:00Z,30.3288,-87.8293,0.0,1.89,116.4,-999.0,'1111122,1111122,1111122' 
DISL,ioos:station:DISL:BSCA:1,2017-02-01T15:30:00Z,30.3288,-87.8293,0.0,1.66,137.6,-999.0,'1111122,1111122,1111122' 
DISL,ioos:station:DISL:BSCA:1,2017-02-01T16:00:00Z,30.3288,-87.8293,0.0,1.5,151.1,-999.0,'1111122,1111122,1111122' 
DISL,ioos:station:DISL:BSCA:1,2017-02-01T16:30:00Z,30.3288,-87.8293,0.0,1.47,164.5,-999.0,'1111122,1111122,1111122' 
DISL,ioos:station:DISL:BSCA:1,2017-02-01T17:00:00Z,30.3288,-87.8293,0.0,1.65,150.0,-999.0,'1111122,1111122,1111122' 
DISL,ioos:station:DISL:BSCA:1,2017-02-01T17:30:00Z,30.3288,-87.8293,0.0,1.07,162.6,-999.0,'1111122,1111122,1111122' 
DISL,ioos:station:DISL:BSCA:1,2017-02-01T18:00:00Z,30.3288,-87.8293,0.0,1.09,190.0,-999.0,'1111122,1111122,1111122' 
DISL,ioos:station:DISL:BSCA:1,2017-02-01T18:30:00Z,30.3288,-87.8293,0.0,0.67,237.0,-999.0,'1111122,1111122,1111122' 
DISL,ioos:station:DISL:BSCA:1,2017-02-01T19:00:00Z,30.3288,-87.8293,0.0,0.82,269.7,-999.0,'1111122,1111122,1111122' 
DISL,ioos:station:DISL:BSCA:1,2017-02-01T19:30:00Z,30.3288,-87.8293,0.0,1.16,233.2,-999.0,'1111122,1111122,1111122' 
DISL,ioos:station:DISL:BSCA:1,2017-02-01T20:00:00Z,30.3288,-87.8293,0.0,1.5,207.2,-999.0,'1111122,1111122,1111122' 
DISL,ioos:station:DISL:BSCA:1,2017-02-01T20:30:00Z,30.3288,-87.8293,0.0,2.51,212.9,-999.0,'1111122,1111122,1111122' 
DISL,ioos:station:DISL:BSCA:1,2017-02-01T21:00:00Z,30.3288,-87.8293,0.0,3.05,201.2,-999.0,'1111122,1111122,1111122' 
DISL,ioos:station:DISL:BSCA:1,2017-02-01T21:30:00Z,30.3288,-87.8293,0.0,2.73,204.3,-999.0,'1111122,1111122,1111122' 
DISL,ioos:station:DISL:BSCA:1,2017-02-01T22:00:00Z,30.3288,-87.8293,0.0,2.53,196.2,-999.0,'1111122,1111122,1111122' 
DISL,ioos:station:DISL:BSCA:1,2017-02-01T22:30:00Z,30.3288,-87.8293,0.0,2.62,193.7,-999.0,'1111122,1111122,1111122' 
DISL,ioos:station:DISL:BSCA:1,2017-02-01T23:00:00Z,30.3288,-87.8293,0.0,2.51,193.0,-999.0,'1111122,1111122,1111122' 
DISL,ioos:station:DISL:BSCA:1,2017-02-01T23:30:00Z,30.3288,-87.8293,0.0,2.81,189.8,-999.0,'1111122,1111122,1111122' 
DISL,ioos:station:DISL:BSCA:1,2017-02-02T00:00:00Z,30.3288,-87.8293,0.0,2.0,185.8,-999.0,'1111122,1111122,1111122' 
DISL,ioos:station:DISL:BSCA:1,2017-02-02T00:30:00Z,30.3288,-87.8293,0.0,2.26,163.7,-999.0,'1111122,1111122,1111122' 
DISL,ioos:station:DISL:BSCA:1,2017-02-02T01:00:00Z,30.3288,-87.8293,0.0,2.59,132.1,-999.0,'1111122,1111122,1111122' 
DISL,ioos:station:DISL:BSCA:1,2017-02-02T01:30:00Z,30.3288,-87.8293,0.0,2.03,118.1,-999.0,'1111122,1111122,1111122' 
DISL,ioos:station:DISL:BSCA:1,2017-02-02T02:00:00Z,30.3288,-87.8293,0.0,2.57,140.6,-999.0,'1111122,1111122,1111122' 
DISL,ioos:station:DISL:BSCA:1,2017-02-02T02:30:00Z,30.3288,-87.8293,0.0,1.89,133.9,-999.0,'1111122,1111122,1111122' 
DISL,ioos:station:DISL:BSCA:1,2017-02-02T03:00:00Z,30.3288,-87.8293,0.0,1.56,147.9,-999.0,'1111122,1111122,1111122' 
DISL,ioos:station:DISL:BSCA:1,2017-02-02T03:30:00Z,30.3288,-87.8293,0.0,2.6,162.5,-999.0,'1111122,1111122,1111122' 
DISL,ioos:station:DISL:BSCA:1,2017-02-02T04:00:00Z,30.3288,-87.8293,0.0,2.44,159.1,-999.0,'1111122,1111122,1111122' 
DISL,ioos:station:DISL:BSCA:1,2017-02-02T04:30:00Z,30.3288,-87.8293,0.0,2.06,175.5,-999.0,'1111122,1111122,1111122' 
DISL,ioos:station:DISL:BSCA:1,2017-02-02T05:00:00Z,30.3288,-87.8293,0.0,2.62,182.5,-999.0,'1111122,1111122,1111122' 
DISL,ioos:station:DISL:BSCA:1,2017-02-02T05:30:00Z,30.3288,-87.8293,0.0,1.4,173.2,-999.0,'1111122,1111122,1111122' 
DISL,ioos:station:DISL:BSCA:1,2017-02-02T06:00:00Z,30.3288,-87.8293,0.0,0.75,141.6,-999.0,'1111122,1111122,1111122' 
DISL,ioos:station:DISL:BSCA:1,2017-02-02T06:30:00Z,30.3288,-87.8293,0.0,0.75,125.5,-999.0,'1111122,1111122,1111122' 
DISL,ioos:station:DISL:BSCA:1,2017-02-02T07:00:00Z,30.3288,-87.8293,0.0,1.24,104.4,-999.0,'1111122,1111122,1111122' 
DISL,ioos:station:DISL:BSCA:1,2017-02-02T07:30:00Z,30.3288,-87.8293,0.0,1.26,106.5,-999.0,'1111122,1111122,1111122' 
DISL,ioos:station:DISL:BSCA:1,2017-02-02T08:00:00Z,30.3288,-87.8293,0.0,1.13,66.63,-999.0,'1111122,1111122,1111122' 
DISL,ioos:station:DISL:BSCA:1,2017-02-02T08:30:00Z,30.3288,-87.8293,0.0,1.37,55.75,-999.0,'1111122,1111122,1111122' 
DISL,ioos:station:DISL:BSCA:1,2017-02-02T09:00:00Z,30.3288,-87.8293,0.0,1.64,48.56,-999.0,'1111122,1111122,1111122' 
DISL,ioos:station:DISL:BSCA:1,2017-02-02T09:30:00Z,30.3288,-87.8293,0.0,1.96,60.39,-999.0,'1111122,1111122,1111122' 
DISL,ioos:station:DISL:BSCA:1,2017-02-02T10:00:00Z,30.3288,-87.8293,0.0,1.67,63.21,-999.0,'1111122,1111122,1111122' 
DISL,ioos:station:DISL:BSCA:1,2017-02-02T10:30:00Z,30.3288,-87.8293,0.0,1.49,51.56,-999.0,'1111122,1111122,1111122' 
DISL,ioos:station:DISL:BSCA:1,2017-02-02T11:00:00Z,30.3288,-87.8293,0.0,1.43,58.86,-999.0,'1111122,1111122,1111122' 
DISL,ioos:station:DISL:BSCA:1,2017-02-02T11:30:00Z,30.3288,-87.8293,0.0,1.38,60.42,-999.0,'1111122,1111122,1111122' 
DISL,ioos:station:DISL:BSCA:1,2017-02-02T12:00:00Z,30.3288,-87.8293,0.0,1.35,50.24,-999.0,'1111122,1111122,1111122' 
DISL,ioos:station:DISL:BSCA:1,2017-02-02T12:30:00Z,30.3288,-87.8293,0.0,1.08,80.1,-999.0,'1111122,1111122,1111122' 
DISL,ioos:station:DISL:BSCA:1,2017-02-02T13:00:00Z,30.3288,-87.8293,0.0,1.48,63.89,-999.0,'1111122,1111122,1111122' 
DISL,ioos:station:DISL:BSCA:1,2017-02-02T13:30:00Z,30.3288,-87.8293,0.0,1.52,69.08,-999.0,'1111122,1111122,1111122' 
DISL,ioos:station:DISL:BSCA:1,2017-02-02T14:00:00Z,30.3288,-87.8293,0.0,1.36,65.15,-999.0,'1111122,1111122,1111122' 
DISL,ioos:station:DISL:BSCA:1,2017-02-02T14:30:00Z,30.3288,-87.8293,0.0,1.08,54.25,-999.0,'1111122,1111122,1111122' 
DISL,ioos:station:DISL:BSCA:1,2017-02-02T15:00:00Z,30.3288,-87.8293,0.0,0.0,188.1,-999.0,'1114422,1111122,1111122' 
DISL,ioos:station:DISL:BSCA:1,2017-02-02T15:30:00Z,30.3288,-87.8293,0.0,1.34,194.9,-999.0,'1111122,1111122,1111122' 
DISL,ioos:station:DISL:BSCA:1,2017-02-02T16:00:00Z,30.3288,-87.8293,0.0,0.92,182.8,-999.0,'1111122,1111122,1111122' 
DISL,ioos:station:DISL:BSCA:1,2017-02-02T16:30:00Z,30.3288,-87.8293,0.0,0.03,314.4,-999.0,'1111122,1111122,1111122' 
DISL,ioos:station:DISL:BSCA:1,2017-02-02T17:00:00Z,30.3288,-87.8293,0.0,0.4,259.6,-999.0,'1111122,1111122,1111122' 
DISL,ioos:station:DISL:BSCA:1,2017-02-02T17:30:00Z,30.3288,-87.8293,0.0,1.63,297.0,-999.0,'1111122,1111122,1111122' 
DISL,ioos:station:DISL:BSCA:1,2017-02-02T18:00:00Z,30.3288,-87.8293,0.0,2.01,307.0,-999.0,'1111122,1111122,1111122' 
DISL,ioos:station:DISL:BSCA:1,2017-02-02T18:30:00Z,30.3288,-87.8293,0.0,2.04,302.4,-999.0,'1111122,1111122,1111122' 
DISL,ioos:station:DISL:BSCA:1,2017-02-02T19:00:00Z,30.3288,-87.8293,0.0,1.41,298.8,-999.0,'1111122,1111122,1111122' 
DISL,ioos:station:DISL:BSCA:1,2017-02-02T19:30:00Z,30.3288,-87.8293,0.0,1.19,244.6,-999.0,'1111122,1111122,1111122' 
DISL,ioos:station:DISL:BSCA:1,2017-02-02T20:00:00Z,30.3288,-87.8293,0.0,1.77,257.2,-999.0,'1111122,1111122,1111122' 
DISL,ioos:station:DISL:BSCA:1,2017-02-02T20:30:00Z,30.3288,-87.8293,0.0,2.67,259.6,-999.0,'1111122,1111122,1111122' 
DISL,ioos:station:DISL:BSCA:1,2017-02-02T21:00:00Z,30.3288,-87.8293,0.0,3.75,257.6,-999.0,'1111122,1111122,1111122' 
DISL,ioos:station:DISL:BSCA:1,2017-02-02T21:30:00Z,30.3288,-87.8293,0.0,2.88,247.9,-999.0,'1111122,1111122,1111122' 
DISL,ioos:station:DISL:BSCA:1,2017-02-02T22:00:00Z,30.3288,-87.8293,0.0,2.78,242.9,-999.0,'1111122,1111122,1111122' 
DISL,ioos:station:DISL:BSCA:1,2017-02-02T22:30:00Z,30.3288,-87.8293,0.0,2.56,224.1,-999.0,'1111122,1111122,1111122' 
DISL,ioos:station:DISL:BSCA:1,2017-02-02T23:00:00Z,30.3288,-87.8293,0.0,3.47,207.4,-999.0,'1111122,1111122,1111122' 
DISL,ioos:station:DISL:BSCA:1,2017-02-02T23:30:00Z,30.3288,-87.8293,0.0,3.16,210.6,-999.0,'1111122,1111122,1111122' 
DISL,ioos:station:DISL:BSCA:1,2017-02-03T00:00:00Z,30.3288,-87.8293,0.0,2.74,206.4,-999.0,'1111122,1111122,1111122' 
DISL,ioos:station:DISL:BSCA:1,2017-02-03T00:30:00Z,30.3288,-87.8293,0.0,2.02,187.7,-999.0,'1111122,1111122,1111122' 
DISL,ioos:station:DISL:BSCA:1,2017-02-03T01:00:00Z,30.3288,-87.8293,0.0,1.99,180.9,-999.0,'1111122,1111122,1111122' 
DISL,ioos:station:DISL:BSCA:1,2017-02-03T01:30:00Z,30.3288,-87.8293,0.0,2.04,191.6,-999.0,'1111122,1111122,1111122' 
DISL,ioos:station:DISL:BSCA:1,2017-02-03T02:00:00Z,30.3288,-87.8293,0.0,2.99,192.0,-999.0,'1111122,1111122,1111122' 
DISL,ioos:station:DISL:BSCA:1,2017-02-03T02:30:00Z,30.3288,-87.8293,0.0,2.34,183.7,-999.0,'1111122,1111122,1111122' 
DISL,ioos:station:DISL:BSCA:1,2017-02-03T03:00:00Z,30.3288,-87.8293,0.0,3.34,169.4,-999.0,'1111122,1111122,1111122' 
DISL,ioos:station:DISL:BSCA:1,2017-02-03T03:30:00Z,30.3288,-87.8293,0.0,2.47,198.0,-999.0,'1111122,1111122,1111122' 
DISL,ioos:station:DISL:BSCA:1,2017-02-03T04:00:00Z,30.3288,-87.8293,0.0,2.62,202.5,-999.0,'1111122,1111122,1111122' 
DISL,ioos:station:DISL:BSCA:1,2017-02-03T04:30:00Z,30.3288,-87.8293,0.0,2.27,205.2,-999.0,'1111122,1111122,1111122' 
DISL,ioos:station:DISL:BSCA:1,2017-02-03T05:00:00Z,30.3288,-87.8293,0.0,2.18,238.0,-999.0,'1111122,1111122,1111122' 
DISL,ioos:station:DISL:BSCA:1,2017-02-03T05:30:00Z,30.3288,-87.8293,0.0,1.1,237.8,-999.0,'1111122,1111122,1111122' 
DISL,ioos:station:DISL:BSCA:1,2017-02-03T06:00:00Z,30.3288,-87.8293,0.0,0.62,206.7,-999.0,'1111122,1111122,1111122' 
DISL,ioos:station:DISL:BSCA:1,2017-02-03T06:30:00Z,30.3288,-87.8293,0.0,0.34,64.09,-999.0,'1111122,1111122,1111122' 
DISL,ioos:station:DISL:BSCA:1,2017-02-03T07:00:00Z,30.3288,-87.8293,0.0,1.62,229.0,-999.0,'1111122,1111122,1111122' 
DISL,ioos:station:DISL:BSCA:1,2017-02-03T07:30:00Z,30.3288,-87.8293,0.0,1.31,241.7,-999.0,'1111122,1111122,1111122' 
DISL,ioos:station:DISL:BSCA:1,2017-02-03T08:00:00Z,30.3288,-87.8293,0.0,1.77,318.1,-999.0,'1111122,1111122,1111122' 
DISL,ioos:station:DISL:BSCA:1,2017-02-03T08:30:00Z,30.3288,-87.8293,0.0,2.1,312.5,-999.0,'1111122,1111122,1111122' 
DISL,ioos:station:DISL:BSCA:1,2017-02-03T09:00:00Z,30.3288,-87.8293,0.0,3.22,16.66,-999.0,'1111122,1111122,1111122' 
DISL,ioos:station:DISL:BSCA:1,2017-02-03T09:30:00Z,30.3288,-87.8293,0.0,2.16,27.93,-999.0,'1111122,1111122,1111122' 
DISL,ioos:station:DISL:BSCA:1,2017-02-03T10:00:00Z,30.3288,-87.8293,0.0,1.55,50.01,-999.0,'1111122,1111122,1111122' 
DISL,ioos:station:DISL:BSCA:1,2017-02-03T10:30:00Z,30.3288,-87.8293,0.0,1.64,37.45,-999.0,'1111122,1111122,1111122' 
DISL,ioos:station:DISL:BSCA:1,2017-02-03T11:00:00Z,30.3288,-87.8293,0.0,0.45,255.9,-999.0,'1111122,1111122,1111122' 
DISL,ioos:station:DISL:BSCA:1,2017-02-03T11:30:00Z,30.3288,-87.8293,0.0,2.31,312.8,-999.0,'1111122,1111122,1111122' 
DISL,ioos:station:DISL:BSCA:1,2017-02-03T12:00:00Z,30.3288,-87.8293,0.0,2.77,300.5,-999.0,'1111122,1111122,1111122' 
DISL,ioos:station:DISL:BSCA:1,2017-02-03T12:30:00Z,30.3288,-87.8293,0.0,2.29,30.33,-999.0,'1111122,1111122,1111122' 
DISL,ioos:station:DISL:BSCA:1,2017-02-03T13:00:00Z,30.3288,-87.8293,0.0,0.72,72.12,-999.0,'1111122,1111122,1111122' 
DISL,ioos:station:DISL:BSCA:1,2017-02-03T13:30:00Z,30.3288,-87.8293,0.0,1.87,37.9,-999.0,'1111122,1111122,1111122' 
DISL,ioos:station:DISL:BSCA:1,2017-02-03T14:00:00Z,30.3288,-87.8293,0.0,2.08,18.0,-999.0,'1111122,1111122,1111122' 
DISL,ioos:station:DISL:BSCA:1,2017-02-03T14:30:00Z,30.3288,-87.8293,0.0,1.41,60.25,-999.0,'1111122,1111122,1111122' 
DISL,ioos:station:DISL:BSCA:1,2017-02-03T15:00:00Z,30.3288,-87.8293,0.0,0.27,40.74,-999.0,'1111122,1111122,1111122' 
DISL,ioos:station:DISL:BSCA:1,2017-02-03T15:30:00Z,30.3288,-87.8293,0.0,0.81,325.1,-999.0,'1111122,1111122,1111122' 
DISL,ioos:station:DISL:BSCA:1,2017-02-03T16:00:00Z,30.3288,-87.8293,0.0,1.97,352.1,-999.0,'1111122,1111122,1111122' 
DISL,ioos:station:DISL:BSCA:1,2017-02-03T16:30:00Z,30.3288,-87.8293,0.0,4.5,348.7,-999.0,'1111122,1111122,1111122' 
DISL,ioos:station:DISL:BSCA:1,2017-02-03T17:00:00Z,30.3288,-87.8293,0.0,6.2,348.8,-999.0,'1111122,1111122,1111122' 
DISL,ioos:station:DISL:BSCA:1,2017-02-03T17:30:00Z,30.3288,-87.8293,0.0,6.6,350.1,-999.0,'1111122,1111122,1111122' 
DISL,ioos:station:DISL:BSCA:1,2017-02-03T18:00:00Z,30.3288,-87.8293,0.0,7.01,347.8,-999.0,'1111122,1111122,1111122' 
DISL,ioos:station:DISL:BSCA:1,2017-02-03T18:30:00Z,30.3288,-87.8293,0.0,6.85,355.9,-999.0,'1111122,1111122,1111122' 
DISL,ioos:station:DISL:BSCA:1,2017-02-03T19:00:00Z,30.3288,-87.8293,0.0,5.93,5.628,-999.0,'1111122,1111122,1111122' 
DISL,ioos:station:DISL:BSCA:1,2017-02-03T19:30:00Z,30.3288,-87.8293,0.0,4.91,357.8,-999.0,'1111122,1111122,1111122' 
DISL,ioos:station:DISL:BSCA:1,2017-02-03T20:00:00Z,30.3288,-87.8293,0.0,6.53,354.0,-999.0,'1111122,1111122,1111122' 
DISL,ioos:station:DISL:BSCA:1,2017-02-03T20:30:00Z,30.3288,-87.8293,0.0,6.0,359.2,-999.0,'1111122,1111122,1111122' 
DISL,ioos:station:DISL:BSCA:1,2017-02-03T21:00:00Z,30.3288,-87.8293,0.0,7.09,335.5,-999.0,'1111122,1111122,1111122' 
DISL,ioos:station:DISL:BSCA:1,2017-02-03T21:30:00Z,30.3288,-87.8293,0.0,6.91,346.6,-999.0,'1111122,1111122,1111122' 
DISL,ioos:station:DISL:BSCA:1,2017-02-03T22:00:00Z,30.3288,-87.8293,0.0,5.84,1.552,-999.0,'1111122,1111122,1111122' 
DISL,ioos:station:DISL:BSCA:1,2017-02-03T22:30:00Z,30.3288,-87.8293,0.0,5.76,2.221,-999.0,'1111122,1111122,1111122' 
DISL,ioos:station:DISL:BSCA:1,2017-02-03T23:00:00Z,30.3288,-87.8293,0.0,6.12,1.112,-999.0,'1111122,1111122,1111122' 
DISL,ioos:station:DISL:BSCA:1,2017-02-03T23:30:00Z,30.3288,-87.8293,0.0,6.28,359.9,-999.0,'1111122,1111122,1111122' 
DISL,ioos:station:DISL:BSCA:1,2017-02-04T00:00:00Z,30.3288,-87.8293,0.0,6.43,7.222,-999.0,'1111122,1111122,1111122' 
DISL,ioos:station:DISL:BSCA:1,2017-02-04T00:30:00Z,30.3288,-87.8293,0.0,6.12,26.56,-999.0,'1111122,1111122,1111122' 
DISL,ioos:station:DISL:BSCA:1,2017-02-04T01:00:00Z,30.3288,-87.8293,0.0,5.66,27.4,-999.0,'1111122,1111122,1111122' 
DISL,ioos:station:DISL:BSCA:1,2017-02-04T01:30:00Z,30.3288,-87.8293,0.0,4.79,16.13,-999.0,'1111122,1111122,1111122' 
DISL,ioos:station:DISL:BSCA:1,2017-02-04T02:00:00Z,30.3288,-87.8293,0.0,4.35,13.45,-999.0,'1111122,1111122,1111122' 
DISL,ioos:station:DISL:BSCA:1,2017-02-04T02:30:00Z,30.3288,-87.8293,0.0,3.74,18.17,-999.0,'1111122,1111122,1111122' 
DISL,ioos:station:DISL:BSCA:1,2017-02-04T03:00:00Z,30.3288,-87.8293,0.0,5.3,14.17,-999.0,'1111122,1111122,1111122' 
DISL,ioos:station:DISL:BSCA:1,2017-02-04T03:30:00Z,30.3288,-87.8293,0.0,5.29,19.59,-999.0,'1111122,1111122,1111122' 
DISL,ioos:station:DISL:BSCA:1,2017-02-04T04:00:00Z,30.3288,-87.8293,0.0,4.98,14.43,-999.0,'1111122,1111122,1111122' 
DISL,ioos:station:DISL:BSCA:1,2017-02-04T04:30:00Z,30.3288,-87.8293,0.0,4.51,17.84,-999.0,'1111122,1111122,1111122' 
DISL,ioos:station:DISL:BSCA:1,2017-02-04T05:00:00Z,30.3288,-87.8293,0.0,5.3,5.204,-999.0,'1111122,1111122,1111122' 
DISL,ioos:station:DISL:BSCA:1,2017-02-04T05:30:00Z,30.3288,-87.8293,0.0,5.32,13.93,-999.0,'1111122,1111122,1111122' 
DISL,ioos:station:DISL:BSCA:1,2017-02-04T06:00:00Z,30.3288,-87.8293,0.0,5.55,14.54,-999.0,'1111122,1111122,1111122' 
DISL,ioos:station:DISL:BSCA:1,2017-02-04T06:30:00Z,30.3288,-87.8293,0.0,5.67,14.36,-999.0,'1111122,1111122,1111122' 
DISL,ioos:station:DISL:BSCA:1,2017-02-04T07:00:00Z,30.3288,-87.8293,0.0,4.83,25.33,-999.0,'1111122,1111122,1111122' 
DISL,ioos:station:DISL:BSCA:1,2017-02-04T07:30:00Z,30.3288,-87.8293,0.0,5.15,21.66,-999.0,'1111122,1111122,1111122' 
DISL,ioos:station:DISL:BSCA:1,2017-02-04T08:00:00Z,30.3288,-87.8293,0.0,4.65,30.45,-999.0,'1111122,1111122,1111122' 
DISL,ioos:station:DISL:BSCA:1,2017-02-04T08:30:00Z,30.3288,-87.8293,0.0,5.62,37.55,-999.0,'1111122,1111122,1111122' 
DISL,ioos:station:DISL:BSCA:1,2017-02-04T09:00:00Z,30.3288,-87.8293,0.0,6.54,39.05,-999.0,'1111122,1111122,1111122' 
DISL,ioos:station:DISL:BSCA:1,2017-02-04T09:30:00Z,30.3288,-87.8293,0.0,4.37,35.58,-999.0,'1111122,1111122,1111122' 
DISL,ioos:station:DISL:BSCA:1,2017-02-04T10:00:00Z,30.3288,-87.8293,0.0,5.53,35.66,-999.0,'1111122,1111122,1111122' 
DISL,ioos:station:DISL:BSCA:1,2017-02-04T10:30:00Z,30.3288,-87.8293,0.0,5.4,33.18,-999.0,'1111122,1111122,1111122' 
DISL,ioos:station:DISL:BSCA:1,2017-02-04T11:00:00Z,30.3288,-87.8293,0.0,5.36,30.22,-999.0,'1111122,1111122,1111122' 
DISL,ioos:station:DISL:BSCA:1,2017-02-04T11:30:00Z,30.3288,-87.8293,0.0,4.88,39.23,-999.0,'1111122,1111122,1111122' 
DISL,ioos:station:DISL:BSCA:1,2017-02-04T12:00:00Z,30.3288,-87.8293,0.0,4.22,43.06,-999.0,'1111122,1111122,1111122' 
DISL,ioos:station:DISL:BSCA:1,2017-02-04T12:30:00Z,30.3288,-87.8293,0.0,4.46,45.75,-999.0,'1111122,1111122,1111122' 
DISL,ioos:station:DISL:BSCA:1,2017-02-04T13:00:00Z,30.3288,-87.8293,0.0,4.28,56.91,-999.0,'1111122,1111122,1111122' 
DISL,ioos:station:DISL:BSCA:1,2017-02-04T13:30:00Z,30.3288,-87.8293,0.0,5.54,52.01,-999.0,'1111122,1111122,1111122' 
DISL,ioos:station:DISL:BSCA:1,2017-02-04T14:00:00Z,30.3288,-87.8293,0.0,6.51,60.0,-999.0,'1111122,1111122,1111122' 
DISL,ioos:station:DISL:BSCA:1,2017-02-04T14:30:00Z,30.3288,-87.8293,0.0,5.32,68.72,-999.0,'1111122,1111122,1111122' 
DISL,ioos:station:DISL:BSCA:1,2017-02-04T15:00:00Z,30.3288,-87.8293,0.0,6.9,54.53,-999.0,'1111122,1111122,1111122' 
DISL,ioos:station:DISL:BSCA:1,2017-02-04T15:30:00Z,30.3288,-87.8293,0.0,4.9,55.79,-999.0,'1111122,1111122,1111122' 
DISL,ioos:station:DISL:BSCA:1,2017-02-04T16:00:00Z,30.3288,-87.8293,0.0,4.5,63.34,-999.0,'1111122,1111122,1111122' 
DISL,ioos:station:DISL:BSCA:1,2017-02-04T16:30:00Z,30.3288,-87.8293,0.0,2.46,64.34,-999.0,'1111122,1111122,1111122' 
DISL,ioos:station:DISL:BSCA:1,2017-02-04T17:00:00Z,30.3288,-87.8293,0.0,1.75,66.34,-999.0,'1111122,1111122,1111122' 
DISL,ioos:station:DISL:BSCA:1,2017-02-04T17:30:00Z,30.3288,-87.8293,0.0,1.47,298.1,-999.0,'1111122,1111122,1111122' 
DISL,ioos:station:DISL:BSCA:1,2017-02-04T18:00:00Z,30.3288,-87.8293,0.0,2.3,308.8,-999.0,'1111122,1111122,1111122' 
DISL,ioos:station:DISL:BSCA:1,2017-02-04T18:30:00Z,30.3288,-87.8293,0.0,1.41,353.0,-999.0,'1111122,1111122,1111122' 
DISL,ioos:station:DISL:BSCA:1,2017-02-04T19:00:00Z,30.3288,-87.8293,0.0,3.84,304.3,-999.0,'1111122,1111122,1111122' 
DISL,ioos:station:DISL:BSCA:1,2017-02-04T19:30:00Z,30.3288,-87.8293,0.0,4.3,286.4,-999.0,'1111122,1111122,1111122' 
DISL,ioos:station:DISL:BSCA:1,2017-02-04T20:00:00Z,30.3288,-87.8293,0.0,4.36,284.6,-999.0,'1111122,1111122,1111122' 
DISL,ioos:station:DISL:BSCA:1,2017-02-04T20:30:00Z,30.3288,-87.8293,0.0,4.66,296.5,-999.0,'1111122,1111122,1111122' 
DISL,ioos:station:DISL:BSCA:1,2017-02-04T21:00:00Z,30.3288,-87.8293,0.0,4.18,298.5,-999.0,'1111122,1111122,1111122' 
DISL,ioos:station:DISL:BSCA:1,2017-02-04T21:30:00Z,30.3288,-87.8293,0.0,3.15,282.1,-999.0,'1111122,1111122,1111122' 
DISL,ioos:station:DISL:BSCA:1,2017-02-04T22:00:00Z,30.3288,-87.8293,0.0,2.46,277.0,-999.0,'1111122,1111122,1111122' 
DISL,ioos:station:DISL:BSCA:1,2017-02-04T22:30:00Z,30.3288,-87.8293,0.0,1.88,224.7,-999.0,'1111122,1111122,1111122' 
DISL,ioos:station:DISL:BSCA:1,2017-02-04T23:00:00Z,30.3288,-87.8293,0.0,1.95,230.8,-999.0,'1111122,1111122,1111122' 
DISL,ioos:station:DISL:BSCA:1,2017-02-04T23:30:00Z,30.3288,-87.8293,0.0,2.12,211.9,-999.0,'1111122,1111122,1111122' 
DISL,ioos:station:DISL:BSCA:1,2017-02-05T00:00:00Z,30.3288,-87.8293,0.0,2.6,200.5,-999.0,'1111122,1111122,1111122' 
DISL,ioos:station:DISL:BSCA:1,2017-02-05T00:30:00Z,30.3288,-87.8293,0.0,2.35,197.8,-999.0,'1111122,1111122,1111122' 
DISL,ioos:station:DISL:BSCA:1,2017-02-05T01:00:00Z,30.3288,-87.8293,0.0,1.77,173.0,-999.0,'1111122,1111122,1111122' 
DISL,ioos:station:DISL:BSCA:1,2017-02-05T01:30:00Z,30.3288,-87.8293,0.0,2.09,169.1,-999.0,'1111122,1111122,1111122' 
DISL,ioos:station:DISL:BSCA:1,2017-02-05T02:00:00Z,30.3288,-87.8293,0.0,1.6,122.7,-999.0,'1111122,1111122,1111122' 
DISL,ioos:station:DISL:BSCA:1,2017-02-05T02:30:00Z,30.3288,-87.8293,0.0,1.49,58.96,-999.0,'1111122,1111122,1111122' 
DISL,ioos:station:DISL:BSCA:1,2017-02-05T03:00:00Z,30.3288,-87.8293,0.0,2.01,63.07,-999.0,'1111122,1111122,1111122' 
DISL,ioos:station:DISL:BSCA:1,2017-02-05T03:30:00Z,30.3288,-87.8293,0.0,1.41,50.86,-999.0,'1111122,1111122,1111122' 
DISL,ioos:station:DISL:BSCA:1,2017-02-05T04:00:00Z,30.3288,-87.8293,0.0,1.32,8.17,-999.0,'1111122,1111122,1111122' 
DISL,ioos:station:DISL:BSCA:1,2017-02-05T04:30:00Z,30.3288,-87.8293,0.0,1.21,14.94,-999.0,'1111122,1111122,1111122' 
DISL,ioos:station:DISL:BSCA:1,2017-02-05T05:00:00Z,30.3288,-87.8293,0.0,0.8,84.5,-999.0,'1111122,1111122,1111122' 
DISL,ioos:station:DISL:BSCA:1,2017-02-05T05:30:00Z,30.3288,-87.8293,0.0,1.16,66.45,-999.0,'1111122,1111122,1111122' 